TimeEDT,TemperatureF,Dew PointF,Humidity,Sea Level PressureIn,VisibilityMPH,Wind Direction,Wind SpeedMPH,Gust SpeedMPH,PrecipitationIn,Events,Conditions,WindDirDegrees,DateUTC
12:51 AM,45.0,25.0,46,29.70,10.0,West,9.2,-,N/A,,Scattered Clouds,260,2012-04-25 04:51:00
1:51 AM,42.1,26.1,53,29.71,10.0,WSW,5.8,-,N/A,,Scattered Clouds,250,2012-04-25 05:51:00
2:51 AM,44.1,28.0,53,29.72,10.0,West,8.1,-,N/A,,Scattered Clouds,280,2012-04-25 06:51:00
3:51 AM,43.0,28.0,56,29.73,10.0,West,6.9,-,N/A,,Partly Cloudy,280,2012-04-25 07:51:00
4:51 AM,41.0,28.9,62,29.75,10.0,West,3.5,-,N/A,,Partly Cloudy,280,2012-04-25 08:51:00
5:51 AM,39.9,28.9,65,29.77,10.0,West,4.6,-,N/A,,Partly Cloudy,260,2012-04-25 09:51:00
6:51 AM,37.0,30.0,76,29.79,10.0,Calm,Calm,-,N/A,,Scattered Clouds,0,2012-04-25 10:51:00
7:51 AM,41.0,32.0,70,29.82,10.0,WSW,4.6,-,N/A,,Partly Cloudy,250,2012-04-25 11:51:00
8:51 AM,48.0,30.9,52,29.84,10.0,NW,5.8,-,N/A,,Partly Cloudy,310,2012-04-25 12:51:00
9:51 AM,51.1,28.9,43,29.86,10.0,Variable,4.6,-,N/A,,Partly Cloudy,0,2012-04-25 13:51:00
10:51 AM,54.0,25.0,33,29.86,10.0,SW,10.4,-,N/A,,Partly Cloudy,230,2012-04-25 14:51:00
11:51 AM,57.0,27.0,32,29.86,10.0,WNW,8.1,-,N/A,,Partly Cloudy,300,2012-04-25 15:51:00
12:51 PM,59.0,26.1,28,29.86,10.0,West,11.5,21.9,N/A,,Scattered Clouds,280,2012-04-25 16:51:00
1:51 PM,62.1,26.1,25,29.84,10.0,WSW,12.7,21.9,N/A,,Mostly Cloudy,250,2012-04-25 17:51:00
2:51 PM,62.1,25.0,24,29.84,10.0,West,10.4,-,N/A,,Mostly Cloudy,270,2012-04-25 18:51:00
3:51 PM,62.1,24.1,23,29.82,10.0,Variable,4.6,-,N/A,,Overcast,0,2012-04-25 19:51:00
4:51 PM,63.0,25.0,24,29.81,10.0,Variable,3.5,-,N/A,,Scattered Clouds,0,2012-04-25 20:51:00
5:51 PM,64.0,26.1,24,29.81,10.0,NW,6.9,-,N/A,,Mostly Cloudy,310,2012-04-25 21:51:00
6:51 PM,59.0,27.0,29,29.83,10.0,Variable,3.5,-,N/A,,Mostly Cloudy,0,2012-04-25 22:51:00
7:51 PM,57.9,28.0,32,29.82,10.0,Calm,Calm,-,N/A,,Mostly Cloudy,0,2012-04-25 23:51:00
8:51 PM,55.0,28.9,37,29.82,10.0,ENE,8.1,-,N/A,,Mostly Cloudy,60,2012-04-26 00:51:00
9:51 PM,53.1,30.0,41,29.83,10.0,East,6.9,-,N/A,,Overcast,100,2012-04-26 01:51:00
10:51 PM,54.0,30.9,41,29.81,10.0,ESE,6.9,-,0.00,Rain,Light Rain,120,2012-04-26 02:51:00
11:51 PM,53.1,33.1,47,29.81,10.0,Calm,Calm,-,0.00,Rain,Light Rain,0,2012-04-26 03:51:00